Weather History for Hayward, WI

Change the Weather History Date:

Friday, February 22, 2013

  Actual Average Record
Temperature  
Mean Temperature 22 °F -  
Max Temperature 27 °F 40 °F 45 °F (1998)
Min Temperature 17 °F 11 °F -9 °F (2008)
Degree Days  
Heating Degree Days 43    
Moisture  
Dew Point 18 °F    
Average Humidity 85    
Maximum Humidity 93    
Minimum Humidity 77    
Precipitation  
Precipitation 0.18 in - - ()
Sea Level Pressure  
Sea Level Pressure 29.92 in    
Wind  
Wind Speed 5 mph (NE)    
Max Wind Speed 9 mph    
Max Gust Speed -    
Visibility 3 miles    
Events Fog , Snow    
Averages and records for this station are not official NWS values.
T = Trace of Precipitation, MM = Missing Value Source: NWS Daily Summary

Daily Weather History Graph

Daily Weather History Graph

Search for Another Location

Airport:

Trip Planner

Search our weather history database for the weather conditions in past years. The results will help you decide how hot, cold, wet, or windy it might be!

Date:

Astronomy

Feb. 22, 2013 Rise Set
Actual Time 6:56 AM CST 5:42 PM CST
Civil Twilight 6:26 AM CST 6:13 PM CST
Nautical Twilight 5:51 AM CST 6:47 PM CST
Astronomical Twilight 5:16 AM CST 7:22 PM CST
Moon 2:48 PM CST (2/22) 4:48 AM CST (2/22)
Length of Visible Light 11h 46m
Length of Day
10h 46m
Waxing Gibbous, 90% of the Moon is Illuminated
Feb 22
Waxing Gibbous
Feb 25
Full
Mar 4
Last Quarter
Mar 11
New
Mar 19
First Quarter

Hourly Weather History & Observations

Time (CST) Temp. Windchill Dew Point Humidity Pressure Visibility Wind Dir Wind Speed Gust Speed Precip Events Conditions
12:53 AM 19.0 °F 11.1 °F 14.0 °F 81% 30.19 in 10.0 mi NE 5.8 mph - N/A   Overcast
1:53 AM 19.0 °F 11.1 °F 14.0 °F 81% 30.15 in 10.0 mi NE 5.8 mph - N/A   Overcast
2:53 AM 19.9 °F 10.1 °F 15.1 °F 81% 30.11 in 10.0 mi NE 8.1 mph - N/A   Overcast
3:53 AM 19.9 °F 11.1 °F 15.1 °F 81% 30.07 in 10.0 mi NE 6.9 mph - N/A   Overcast
4:53 AM 19.9 °F 12.1 °F 15.1 °F 81% 30.04 in 10.0 mi NE 5.8 mph - N/A   Overcast
5:09 AM 19.4 °F 10.4 °F 15.8 °F 86% 29.97 in 1.8 mi NNE 6.9 mph - 0.00 in Snow Light Snow
5:26 AM 19.4 °F 11.5 °F 15.8 °F 86% 29.95 in 1.0 mi NNE 5.8 mph - 0.00 in Snow Light Snow
5:41 AM 19.4 °F 11.5 °F 15.8 °F 86% 29.95 in 1.2 mi Variable 5.8 mph - 0.01 in Snow Light Snow
5:53 AM 19.9 °F 12.1 °F 16.0 °F 85% 30.01 in 1.0 mi Variable 5.8 mph - 0.01 in Snow Light Snow
6:02 AM 19.4 °F 11.5 °F 15.8 °F 86% 29.95 in 0.8 mi Variable 5.8 mph - 0.02 in Snow Light Snow
6:16 AM 19.4 °F 10.4 °F 15.8 °F 86% 29.94 in 0.5 mi NNE 6.9 mph - 0.04 in Fog , Snow Snow
6:43 AM 19.4 °F 14.3 °F 17.6 °F 93% 29.95 in 1.0 mi NE 3.5 mph - 0.06 in Snow Light Snow
6:53 AM 19.9 °F 13.4 °F 17.1 °F 89% 30.02 in 0.8 mi NE 4.6 mph - 0.07 in Snow Light Snow
7:15 AM 19.4 °F 12.8 °F 17.6 °F 93% 29.95 in 1.0 mi NE 4.6 mph - 0.01 in Snow Light Snow
7:22 AM 19.4 °F 11.5 °F 17.6 °F 93% 29.94 in 0.8 mi NE 5.8 mph - 0.02 in Snow Light Snow
7:53 AM 21.0 °F 13.4 °F 17.1 °F 85% 30.01 in 0.8 mi NE 5.8 mph - 0.03 in Snow Light Snow
8:06 AM 21.2 °F 16.4 °F 17.6 °F 86% 29.94 in 1.0 mi Variable 3.5 mph - 0.00 in Snow Light Snow
8:26 AM 21.2 °F 16.4 °F 17.6 °F 86% 29.94 in 0.8 mi NNE 3.5 mph - 0.00 in Snow Light Snow
8:36 AM 21.2 °F 13.6 °F 17.6 °F 86% 29.93 in 1.0 mi NE 5.8 mph - 0.01 in Snow Light Snow
8:43 AM 21.2 °F 12.6 °F 17.6 °F 86% 29.93 in 1.2 mi NE 6.9 mph - 0.01 in Snow Light Snow
8:53 AM 21.9 °F 13.4 °F 17.1 °F 82% 30.00 in 1.8 mi NE 6.9 mph - 0.01 in Snow Light Snow
9:01 AM 21.2 °F 11.7 °F 17.6 °F 86% 29.93 in 2.0 mi NE 8.1 mph - 0.00 in Snow Light Snow
9:28 AM 21.2 °F 11.7 °F 17.6 °F 86% 29.92 in 1.2 mi NE 8.1 mph - 0.00 in Snow Light Snow
9:41 AM 23.0 °F 13.9 °F 17.6 °F 80% 29.92 in 1.0 mi ENE 8.1 mph - 0.00 in Snow Light Snow
9:53 AM 23.0 °F 15.8 °F 17.1 °F 78% 29.98 in 1.8 mi Variable 5.8 mph - 0.00 in Snow Light Snow
10:10 AM 23.0 °F 13.9 °F 17.6 °F 80% 29.91 in 1.0 mi ENE 8.1 mph - 0.00 in Snow Light Snow
10:17 AM 23.0 °F 14.7 °F 17.6 °F 80% 29.91 in 1.5 mi NE 6.9 mph - 0.00 in Snow Light Snow
10:39 AM 23.0 °F 13.1 °F 17.6 °F 80% 29.91 in 1.0 mi ENE 9.2 mph - 0.00 in Snow Light Snow
10:53 AM 24.1 °F 15.2 °F 18.0 °F 77% 29.97 in 1.0 mi NE 8.1 mph - 0.00 in Snow Light Snow
11:20 AM 24.8 °F 16.9 °F 19.4 °F 80% 29.90 in 0.8 mi ENE 6.9 mph - 0.01 in Snow Light Snow
11:53 AM 24.1 °F 17.0 °F 19.9 °F 84% 29.96 in 0.5 mi NE 5.8 mph - 0.02 in Fog , Snow Snow
12:25 PM 24.8 °F 17.9 °F 21.2 °F 86% 29.88 in 0.5 mi NNE 5.8 mph - 0.02 in Fog , Snow Snow
12:35 PM 24.8 °F 17.9 °F 21.2 °F 86% 29.87 in 1.2 mi Variable 5.8 mph - 0.02 in Snow Light Snow
12:39 PM 24.8 °F 17.9 °F 21.2 °F 86% 29.87 in 1.0 mi NNE 5.8 mph - 0.02 in Snow Light Snow
12:50 PM 24.8 °F 17.9 °F 21.2 °F 86% 29.86 in 1.2 mi NNE 5.8 mph - 0.02 in Snow Light Snow
12:53 PM 25.0 °F 17.1 °F 21.0 °F 85% 29.92 in 1.2 mi NNE 6.9 mph - 0.02 in Snow Light Snow
1:53 PM 26.1 °F 19.4 °F 21.0 °F 81% 29.91 in 2.0 mi NNE 5.8 mph - 0.00 in Snow Light Snow
2:53 PM 26.1 °F 19.4 °F 21.0 °F 81% 29.90 in 2.0 mi Variable 5.8 mph - 0.00 in Snow Light Snow
3:17 PM 26.6 °F 21.2 °F 21.2 °F 80% 29.83 in 1.8 mi NNE 4.6 mph - 0.02 in Snow Light Snow
3:53 PM 27.0 °F 23.0 °F 21.9 °F 81% 29.88 in 1.5 mi NNE 3.5 mph - 0.02 in Snow Light Snow
4:10 PM 26.6 °F 20.0 °F 21.2 °F 80% 29.82 in 2.0 mi NNE 5.8 mph - 0.00 in Snow Light Snow
4:50 PM 26.6 °F - 21.2 °F 80% 29.83 in 3.0 mi Calm Calm - 0.00 in Snow Light Snow
4:53 PM 26.1 °F 21.9 °F 21.0 °F 81% 29.89 in 3.0 mi NE 3.5 mph - 0.00 in Snow Light Snow
5:09 PM 26.6 °F 22.6 °F 21.2 °F 80% 29.83 in 2.5 mi Variable 3.5 mph - 0.00 in Snow Light Snow
5:44 PM 24.8 °F - 21.2 °F 86% 29.83 in 3.0 mi Calm Calm - 0.00 in Snow Light Snow
5:53 PM 25.0 °F - 21.0 °F 85% 29.89 in 4.0 mi Calm Calm - 0.00 in Snow Light Snow
6:53 PM 24.1 °F - 19.9 °F 84% 29.89 in 10.0 mi Calm Calm - 0.00 in   Overcast
7:53 PM 21.0 °F - 19.0 °F 92% 29.89 in 9.0 mi Calm Calm - N/A   Overcast
8:02 PM 21.2 °F - 17.6 °F 86% 29.82 in 5.0 mi Calm Calm - 0.00 in Snow Light Snow
8:16 PM 21.2 °F - 17.6 °F 86% 29.82 in 2.0 mi Calm Calm - 0.00 in Snow Light Snow
8:31 PM 21.2 °F - 19.4 °F 93% 29.82 in 2.5 mi Calm Calm - 0.00 in Snow Light Snow
8:43 PM 21.2 °F - 19.4 °F 93% 29.82 in 3.0 mi Calm Calm - 0.00 in Snow Light Snow
8:50 PM 21.2 °F - 19.4 °F 93% 29.82 in 2.5 mi Calm Calm - 0.00 in Snow Light Snow
8:53 PM 21.9 °F - 19.0 °F 89% 29.88 in 2.5 mi Calm Calm - 0.00 in Snow Light Snow
9:17 PM 21.2 °F - 19.4 °F 93% 29.81 in 1.8 mi Calm Calm - 0.00 in Snow Light Snow
9:28 PM 21.2 °F - 17.6 °F 86% 29.81 in 2.5 mi Calm Calm - 0.00 in Snow Light Snow
9:53 PM 19.9 °F - 18.0 °F 92% 29.87 in 2.5 mi Calm Calm - 0.00 in Snow Light Snow
10:09 PM 19.4 °F - 17.6 °F 93% 29.80 in 3.0 mi Calm Calm - 0.00 in Snow Light Snow
10:53 PM 18.0 °F - 15.1 °F 88% 29.86 in 4.0 mi Calm Calm - 0.00 in Snow Light Snow
11:02 PM 17.6 °F - 15.8 °F 93% 29.80 in 5.0 mi Calm Calm - 0.00 in   Overcast
11:53 PM 19.0 °F - 16.0 °F 88% 29.85 in 10.0 mi Calm Calm - 0.00 in   Overcast